contact:dominique.lefevre@mio.osupytheas.fr, maurice.libes@osupytheas.fr, didier.mallarino@osupytheas.fr
Project:EMSO http://www.emso-fr.org/EMSO-France
Depth: 2436.0 m
Title:EMSO Ligure Ouest : Data MII capteur MICROCAT
DateTime_Computer,Latitude,Longitude,Temperature,Conductivity,Pressure,DateTime_Instrument
DateTime_Computer,Latitude,Longitude,degC,S m-1,dbar,DateTime_Instrument
2022-06-10T00:00:53Z,42.805,6.029,13.3003,4.60033,2470.553,2022-6-10T02:02:36Z
2022-06-10T00:03:56Z,42.805,6.029,13.3009,4.60035,2470.6,2022-6-10T02:05:39Z
2022-06-10T00:06:59Z,42.805,6.029,13.2999,4.60036,2470.553,2022-6-10T02:08:42Z
2022-06-10T00:10:02Z,42.805,6.029,13.3006,4.60035,2470.577,2022-6-10T02:11:45Z
2022-06-10T00:13:05Z,42.805,6.029,13.3006,4.60036,2470.563,2022-6-10T02:14:48Z
2022-06-10T00:16:08Z,42.805,6.029,13.3003,4.60036,2470.591,2022-6-10T02:17:51Z
2022-06-10T00:19:12Z,42.805,6.029,13.3003,4.60039,2470.577,2022-6-10T02:20:55Z
2022-06-10T00:22:15Z,42.805,6.029,13.3004,4.60039,2470.591,2022-6-10T02:23:58Z
2022-06-10T00:25:18Z,42.805,6.029,13.3003,4.60035,2470.577,2022-6-10T02:27:01Z
2022-06-10T00:28:21Z,42.805,6.029,13.3002,4.60035,2470.6,2022-6-10T02:30:04Z
2022-06-10T00:31:24Z,42.805,6.029,13.3005,4.60036,2470.577,2022-6-10T02:33:07Z
2022-06-10T00:34:27Z,42.805,6.029,13.3003,4.60034,2470.577,2022-6-10T02:36:10Z
2022-06-10T00:37:30Z,42.805,6.029,13.3004,4.60033,2470.567,2022-6-10T02:39:13Z
2022-06-10T00:40:33Z,42.805,6.029,13.3008,4.60037,2470.6,2022-6-10T02:42:16Z
2022-06-10T00:43:37Z,42.805,6.029,13.3002,4.60034,2470.6,2022-6-10T02:45:20Z
2022-06-10T00:46:40Z,42.805,6.029,13.3005,4.60035,2470.577,2022-6-10T02:48:23Z
2022-06-10T00:49:43Z,42.805,6.029,13.3004,4.60035,2470.577,2022-6-10T02:51:26Z
2022-06-10T00:52:46Z,42.805,6.029,13.3007,4.60035,2470.6,2022-6-10T02:54:29Z
2022-06-10T00:55:49Z,42.805,6.029,13.3000,4.60034,2470.6,2022-6-10T02:57:32Z
2022-06-10T00:58:52Z,42.805,6.029,13.3002,4.60036,2470.6,2022-6-10T03:00:35Z
2022-06-10T01:01:55Z,42.805,6.029,13.2999,4.60036,2470.6,2022-6-10T03:03:38Z
2022-06-10T01:04:58Z,42.805,6.029,13.3002,4.60038,2470.614,2022-6-10T03:06:41Z
2022-06-10T01:08:02Z,42.805,6.029,13.3005,4.60036,2470.553,2022-6-10T03:09:45Z
2022-06-10T01:11:05Z,42.805,6.029,13.3002,4.60036,2470.591,2022-6-10T03:12:48Z
2022-06-10T01:14:08Z,42.805,6.029,13.3005,4.60035,2470.577,2022-6-10T03:15:51Z
2022-06-10T01:17:11Z,42.805,6.029,13.3002,4.60037,2470.6,2022-6-10T03:18:54Z
2022-06-10T01:20:14Z,42.805,6.029,13.3004,4.60037,2470.6,2022-6-10T03:21:57Z
2022-06-10T01:23:17Z,42.805,6.029,13.3004,4.60036,2470.637,2022-6-10T03:25:00Z
2022-06-10T01:26:20Z,42.805,6.029,13.3007,4.60036,2470.614,2022-6-10T03:28:03Z
2022-06-10T01:29:23Z,42.805,6.029,13.3000,4.60036,2470.6,2022-6-10T03:31:06Z
2022-06-10T01:32:27Z,42.805,6.029,13.3006,4.60036,2470.577,2022-6-10T03:34:10Z
2022-06-10T01:35:30Z,42.805,6.029,13.3006,4.60038,2470.624,2022-6-10T03:37:13Z
2022-06-10T01:38:33Z,42.805,6.029,13.3006,4.60033,2470.577,2022-6-10T03:40:16Z
2022-06-10T01:41:36Z,42.805,6.029,13.3007,4.60035,2470.6,2022-6-10T03:43:19Z
2022-06-10T01:44:39Z,42.805,6.029,13.3004,4.60033,2470.577,2022-6-10T03:46:22Z
2022-06-10T01:47:42Z,42.805,6.029,13.3000,4.60037,2470.646,2022-6-10T03:49:25Z
2022-06-10T01:50:45Z,42.805,6.029,13.3004,4.60042,2470.586,2022-6-10T03:52:28Z
2022-06-10T01:53:48Z,42.805,6.029,13.3008,4.60037,2470.614,2022-6-10T03:55:31Z
2022-06-10T01:56:52Z,42.805,6.029,13.3005,4.60035,2470.6,2022-6-10T03:58:34Z
2022-06-10T01:59:55Z,42.805,6.029,13.3000,4.60036,2470.661,2022-6-10T04:01:38Z
2022-06-10T02:02:58Z,42.805,6.029,13.3004,4.60035,2470.6,2022-6-10T04:04:41Z
2022-06-10T02:06:01Z,42.805,6.029,13.3005,4.60036,2470.637,2022-6-10T04:07:44Z
2022-06-10T02:09:04Z,42.805,6.029,13.3004,4.60036,2470.624,2022-6-10T04:10:47Z
2022-06-10T02:12:07Z,42.805,6.029,13.3006,4.60036,2470.577,2022-6-10T04:13:50Z
2022-06-10T02:15:10Z,42.805,6.029,13.3005,4.60038,2470.6,2022-6-10T04:16:53Z
2022-06-10T02:18:13Z,42.805,6.029,13.3003,4.60035,2470.6,2022-6-10T04:19:56Z
2022-06-10T02:21:16Z,42.805,6.029,13.3006,4.60038,2470.6,2022-6-10T04:22:59Z
2022-06-10T02:24:20Z,42.805,6.029,13.3009,4.60035,2470.624,2022-6-10T04:26:03Z
2022-06-10T02:27:23Z,42.805,6.029,13.3004,4.60036,2470.6,2022-6-10T04:29:06Z
2022-06-10T02:30:26Z,42.805,6.029,13.3004,4.60036,2470.586,2022-6-10T04:32:09Z
2022-06-10T02:33:29Z,42.805,6.029,13.3001,4.60035,2470.624,2022-6-10T04:35:12Z
2022-06-10T02:36:32Z,42.805,6.029,13.3006,4.60035,2470.614,2022-6-10T04:38:15Z
2022-06-10T02:39:35Z,42.805,6.029,13.3004,4.60037,2470.577,2022-6-10T04:41:18Z
2022-06-10T02:42:38Z,42.805,6.029,13.3000,4.60035,2470.6,2022-6-10T04:44:21Z
2022-06-10T02:45:41Z,42.805,6.029,13.3004,4.60035,2470.633,2022-6-10T04:47:24Z
2022-06-10T02:48:45Z,42.805,6.029,13.3007,4.60038,2470.61,2022-6-10T04:50:28Z
2022-06-10T02:51:48Z,42.805,6.029,13.3005,4.60038,2470.637,2022-6-10T04:53:31Z
2022-06-10T02:54:51Z,42.805,6.029,13.3000,4.60036,2470.637,2022-6-10T04:56:34Z
2022-06-10T02:57:54Z,42.805,6.029,13.3004,4.60037,2470.624,2022-6-10T04:59:37Z
2022-06-10T03:00:57Z,42.805,6.029,13.3006,4.60036,2470.637,2022-6-10T05:02:40Z
2022-06-10T03:04:00Z,42.805,6.029,13.3004,4.60036,2470.624,2022-6-10T05:05:43Z
2022-06-10T03:07:03Z,42.805,6.029,13.3004,4.60036,2470.624,2022-6-10T05:08:46Z
2022-06-10T03:10:06Z,42.805,6.029,13.3005,4.60039,2470.637,2022-6-10T05:11:49Z
2022-06-10T03:13:10Z,42.805,6.029,13.3005,4.60036,2470.646,2022-6-10T05:14:53Z
2022-06-10T03:16:13Z,42.805,6.029,13.3008,4.60037,2470.624,2022-6-10T05:17:56Z
2022-06-10T03:19:16Z,42.805,6.029,13.3004,4.60037,2470.646,2022-6-10T05:20:59Z
2022-06-10T03:22:19Z,42.805,6.029,13.3000,4.60037,2470.624,2022-6-10T05:24:02Z
2022-06-10T03:25:22Z,42.805,6.029,13.3001,4.60036,2470.637,2022-6-10T05:27:05Z
2022-06-10T03:28:25Z,42.805,6.029,13.3002,4.60036,2470.624,2022-6-10T05:30:08Z
2022-06-10T03:31:28Z,42.805,6.029,13.3005,4.60036,2470.646,2022-6-10T05:33:11Z
2022-06-10T03:34:31Z,42.805,6.029,13.3003,4.60035,2470.624,2022-6-10T05:36:14Z
2022-06-10T03:37:35Z,42.805,6.029,13.3006,4.60035,2470.624,2022-6-10T05:39:18Z
2022-06-10T03:40:38Z,42.805,6.029,13.2999,4.60035,2470.661,2022-6-10T05:42:21Z
2022-06-10T03:43:41Z,42.805,6.029,13.3007,4.60036,2470.624,2022-6-10T05:45:24Z
2022-06-10T03:46:44Z,42.805,6.029,13.3004,4.60036,2470.6,2022-6-10T05:48:27Z
2022-06-10T03:49:47Z,42.805,6.029,13.3004,4.60037,2470.637,2022-6-10T05:51:30Z
2022-06-10T03:52:50Z,42.805,6.029,13.3002,4.60034,2470.624,2022-6-10T05:54:33Z
2022-06-10T03:55:53Z,42.805,6.029,13.3004,4.60036,2470.661,2022-6-10T05:57:36Z
2022-06-10T03:58:56Z,42.805,6.029,13.3005,4.60035,2470.637,2022-6-10T06:00:39Z
2022-06-10T04:02:00Z,42.805,6.029,13.3005,4.60036,2470.624,2022-6-10T06:03:43Z
2022-06-10T04:05:03Z,42.805,6.029,13.3006,4.60035,2470.624,2022-6-10T06:06:46Z
2022-06-10T04:08:06Z,42.805,6.029,13.3002,4.60036,2470.6,2022-6-10T06:09:49Z
2022-06-10T04:11:09Z,42.805,6.029,13.3004,4.60035,2470.637,2022-6-10T06:12:52Z
2022-06-10T04:14:12Z,42.805,6.029,13.3003,4.60036,2470.67,2022-6-10T06:15:55Z
2022-06-10T04:17:15Z,42.805,6.029,13.3002,4.60036,2470.637,2022-6-10T06:18:58Z
2022-06-10T04:20:18Z,42.805,6.029,13.3004,4.60038,2470.624,2022-6-10T06:22:01Z
2022-06-10T04:23:21Z,42.805,6.029,13.3004,4.60038,2470.624,2022-6-10T06:25:04Z
2022-06-10T04:26:24Z,42.805,6.029,13.2998,4.60034,2470.6,2022-6-10T06:28:07Z
2022-06-10T04:29:28Z,42.805,6.029,13.3004,4.60038,2470.6,2022-6-10T06:31:11Z
2022-06-10T04:32:31Z,42.805,6.029,13.3001,4.60036,2470.614,2022-6-10T06:34:14Z
2022-06-10T04:35:34Z,42.805,6.029,13.3004,4.60038,2470.6,2022-6-10T06:37:17Z
2022-06-10T04:38:37Z,42.805,6.029,13.3004,4.60037,2470.6,2022-6-10T06:40:20Z
2022-06-10T04:41:40Z,42.805,6.029,13.3000,4.60036,2470.624,2022-6-10T06:43:23Z
2022-06-10T04:44:43Z,42.805,6.029,13.3006,4.60036,2470.614,2022-6-10T06:46:26Z
2022-06-10T04:47:46Z,42.805,6.029,13.3001,4.60037,2470.624,2022-6-10T06:49:29Z
2022-06-10T04:50:49Z,42.805,6.029,13.3006,4.60034,2470.6,2022-6-10T06:52:32Z
2022-06-10T04:53:53Z,42.805,6.029,13.3003,4.60036,2470.614,2022-6-10T06:55:36Z
2022-06-10T04:56:56Z,42.805,6.029,13.3008,4.60037,2470.646,2022-6-10T06:58:39Z
2022-06-10T04:59:59Z,42.805,6.029,13.3006,4.60036,2470.624,2022-6-10T07:01:42Z
2022-06-10T05:03:02Z,42.805,6.029,13.3006,4.60036,2470.577,2022-6-10T07:04:45Z
2022-06-10T05:06:05Z,42.805,6.029,13.3005,4.60035,2470.614,2022-6-10T07:07:48Z
2022-06-10T05:09:08Z,42.805,6.029,13.3004,4.60036,2470.577,2022-6-10T07:10:51Z
2022-06-10T05:12:11Z,42.805,6.029,13.3004,4.60037,2470.624,2022-6-10T07:13:54Z
2022-06-10T05:15:14Z,42.805,6.029,13.3000,4.60036,2470.614,2022-6-10T07:16:57Z
2022-06-10T05:18:18Z,42.805,6.029,13.3004,4.60036,2470.577,2022-6-10T07:20:01Z
2022-06-10T05:21:21Z,42.805,6.029,13.3005,4.60037,2470.637,2022-6-10T07:23:04Z
2022-06-10T05:24:24Z,42.805,6.029,13.3004,4.60036,2470.6,2022-6-10T07:26:07Z
2022-06-10T05:27:27Z,42.805,6.029,13.3004,4.60034,2470.591,2022-6-10T07:29:10Z
2022-06-10T05:30:30Z,42.805,6.029,13.3002,4.60038,2470.614,2022-6-10T07:32:13Z
2022-06-10T05:33:33Z,42.805,6.029,13.3006,4.60035,2470.6,2022-6-10T07:35:16Z
2022-06-10T05:36:36Z,42.805,6.029,13.3004,4.60035,2470.6,2022-6-10T07:38:19Z
2022-06-10T05:39:39Z,42.805,6.029,13.3006,4.60036,2470.6,2022-6-10T07:41:22Z
2022-06-10T05:42:42Z,42.805,6.029,13.3006,4.60035,2470.577,2022-6-10T07:44:25Z
2022-06-10T05:45:46Z,42.805,6.029,13.3005,4.60036,2470.6,2022-6-10T07:47:29Z
2022-06-10T05:48:49Z,42.805,6.029,13.3005,4.60036,2470.577,2022-6-10T07:50:32Z
2022-06-10T05:51:52Z,42.805,6.029,13.3001,4.60036,2470.553,2022-6-10T07:53:35Z
2022-06-10T05:54:55Z,42.805,6.029,13.3007,4.60036,2470.553,2022-6-10T07:56:38Z
2022-06-10T05:57:58Z,42.805,6.029,13.3003,4.60037,2470.577,2022-6-10T07:59:41Z
2022-06-10T06:01:01Z,42.805,6.029,13.3004,4.60036,2470.591,2022-6-10T08:02:44Z
2022-06-10T06:04:04Z,42.805,6.029,13.3003,4.60035,2470.614,2022-6-10T08:05:47Z
2022-06-10T06:07:07Z,42.805,6.029,13.3005,4.60038,2470.567,2022-6-10T08:08:50Z
2022-06-10T06:10:11Z,42.805,6.029,13.3007,4.60036,2470.577,2022-6-10T08:11:54Z
2022-06-10T06:13:14Z,42.805,6.029,13.3003,4.60036,2470.591,2022-6-10T08:14:57Z
2022-06-10T06:16:17Z,42.805,6.029,13.3003,4.60035,2470.577,2022-6-10T08:18:00Z
2022-06-10T06:19:20Z,42.805,6.029,13.3001,4.60036,2470.553,2022-6-10T08:21:03Z
2022-06-10T06:22:23Z,42.805,6.029,13.3003,4.60034,2470.591,2022-6-10T08:24:06Z
2022-06-10T06:25:26Z,42.805,6.029,13.3006,4.60035,2470.539,2022-6-10T08:27:09Z
2022-06-10T06:28:29Z,42.805,6.029,13.3004,4.60037,2470.567,2022-6-10T08:30:12Z
2022-06-10T06:31:32Z,42.805,6.029,13.3001,4.60036,2470.553,2022-6-10T08:33:15Z
2022-06-10T06:34:36Z,42.805,6.029,13.3005,4.60038,2470.577,2022-6-10T08:36:19Z
2022-06-10T06:37:39Z,42.805,6.029,13.3002,4.60036,2470.577,2022-6-10T08:39:22Z
2022-06-10T06:40:42Z,42.805,6.029,13.3005,4.60033,2470.53,2022-6-10T08:42:25Z
2022-06-10T06:43:45Z,42.805,6.029,13.3004,4.60035,2470.544,2022-6-10T08:45:28Z
2022-06-10T06:46:48Z,42.805,6.029,13.3001,4.60034,2470.577,2022-6-10T08:48:31Z
2022-06-10T06:49:51Z,42.805,6.029,13.3004,4.60036,2470.567,2022-6-10T08:51:34Z
2022-06-10T06:52:54Z,42.805,6.029,13.3006,4.60035,2470.577,2022-6-10T08:54:37Z
2022-06-10T06:55:57Z,42.805,6.029,13.3003,4.60034,2470.507,2022-6-10T08:57:40Z
2022-06-10T06:59:00Z,42.805,6.029,13.3006,4.60037,2470.544,2022-6-10T09:00:43Z
2022-06-10T07:02:04Z,42.805,6.029,13.2999,4.60035,2470.567,2022-6-10T09:03:47Z
2022-06-10T07:05:07Z,42.805,6.029,13.2999,4.60036,2470.507,2022-6-10T09:06:50Z
2022-06-10T07:08:10Z,42.805,6.029,13.3001,4.60036,2470.544,2022-6-10T09:09:53Z
2022-06-10T07:11:13Z,42.805,6.029,13.3006,4.60036,2470.567,2022-6-10T09:12:56Z
2022-06-10T07:14:16Z,42.805,6.029,13.3005,4.60035,2470.544,2022-6-10T09:15:59Z
2022-06-10T07:17:19Z,42.805,6.029,13.3003,4.60035,2470.553,2022-6-10T09:19:02Z
2022-06-10T07:20:22Z,42.805,6.029,13.3004,4.60037,2470.567,2022-6-10T09:22:05Z
2022-06-10T07:23:25Z,42.805,6.029,13.3001,4.60035,2470.553,2022-6-10T09:25:08Z
2022-06-10T07:26:29Z,42.805,6.029,13.3002,4.60036,2470.544,2022-6-10T09:28:12Z
2022-06-10T07:29:32Z,42.805,6.029,13.3002,4.60033,2470.52,2022-6-10T09:31:15Z
2022-06-10T07:32:35Z,42.805,6.029,13.3004,4.60034,2470.53,2022-6-10T09:34:18Z
2022-06-10T07:35:38Z,42.805,6.029,13.3007,4.60034,2470.544,2022-6-10T09:37:21Z
2022-06-10T07:38:41Z,42.805,6.029,13.3006,4.60033,2470.544,2022-6-10T09:40:24Z
2022-06-10T07:41:44Z,42.805,6.029,13.3002,4.60036,2470.507,2022-6-10T09:43:27Z
2022-06-10T07:44:47Z,42.805,6.029,13.3004,4.60034,2470.53,2022-6-10T09:46:30Z
2022-06-10T07:47:50Z,42.805,6.029,13.3005,4.60033,2470.553,2022-6-10T09:49:33Z
2022-06-10T07:50:54Z,42.805,6.029,13.3005,4.60037,2470.53,2022-6-10T09:52:37Z
2022-06-10T07:53:57Z,42.805,6.029,13.3004,4.60035,2470.544,2022-6-10T09:55:40Z
2022-06-10T07:57:00Z,42.805,6.029,13.3002,4.60036,2470.507,2022-6-10T09:58:43Z
2022-06-10T08:00:03Z,42.805,6.029,13.3004,4.60035,2470.507,2022-6-10T10:01:46Z
2022-06-10T08:03:06Z,42.805,6.029,13.3001,4.60035,2470.52,2022-6-10T10:04:49Z
2022-06-10T08:06:09Z,42.805,6.029,13.3006,4.60036,2470.52,2022-6-10T10:07:52Z
2022-06-10T08:09:12Z,42.805,6.029,13.3003,4.60034,2470.53,2022-6-10T10:10:55Z
2022-06-10T08:12:15Z,42.805,6.029,13.3003,4.60035,2470.483,2022-6-10T10:13:58Z
2022-06-10T08:15:19Z,42.805,6.029,13.3003,4.60034,2470.497,2022-6-10T10:17:02Z
2022-06-10T08:18:22Z,42.805,6.029,13.3001,4.60036,2470.483,2022-6-10T10:20:05Z
2022-06-10T08:21:25Z,42.805,6.029,13.3004,4.60035,2470.52,2022-6-10T10:23:08Z
2022-06-10T08:24:28Z,42.805,6.029,13.3005,4.60033,2470.507,2022-6-10T10:26:11Z
2022-06-10T08:27:31Z,42.805,6.029,13.3005,4.60036,2470.483,2022-6-10T10:29:14Z
2022-06-10T08:30:34Z,42.805,6.029,13.3003,4.60035,2470.497,2022-6-10T10:32:17Z
2022-06-10T08:33:37Z,42.805,6.029,13.3006,4.60037,2470.483,2022-6-10T10:35:20Z
2022-06-10T08:36:40Z,42.805,6.029,13.3004,4.60033,2470.507,2022-6-10T10:38:23Z
2022-06-10T08:39:44Z,42.805,6.029,13.3005,4.60036,2470.483,2022-6-10T10:41:27Z
2022-06-10T08:42:47Z,42.805,6.029,13.3003,4.60033,2470.52,2022-6-10T10:44:30Z
2022-06-10T08:45:50Z,42.805,6.029,13.3004,4.60034,2470.483,2022-6-10T10:47:33Z
2022-06-10T08:48:53Z,42.805,6.029,13.3003,4.60035,2470.483,2022-6-10T10:50:36Z
2022-06-10T08:51:56Z,42.805,6.029,13.3003,4.60036,2470.483,2022-6-10T10:53:39Z
2022-06-10T08:54:59Z,42.805,6.029,13.3006,4.60035,2470.474,2022-6-10T10:56:42Z
2022-06-10T08:58:02Z,42.805,6.029,13.3002,4.60033,2470.46,2022-6-10T10:59:45Z
2022-06-10T09:01:05Z,42.805,6.029,13.3005,4.60033,2470.474,2022-6-10T11:02:48Z
2022-06-10T09:04:09Z,42.805,6.029,13.3008,4.60037,2470.46,2022-6-10T11:05:52Z
2022-06-10T09:07:12Z,42.805,6.029,13.3007,4.60036,2470.483,2022-6-10T11:08:55Z
2022-06-10T09:10:15Z,42.805,6.029,13.3000,4.60037,2470.46,2022-6-10T11:11:58Z
2022-06-10T09:13:18Z,42.805,6.029,13.3007,4.60033,2470.46,2022-6-10T11:15:01Z
2022-06-10T09:16:21Z,42.805,6.029,13.3000,4.60034,2470.474,2022-6-10T11:18:04Z
2022-06-10T09:19:24Z,42.805,6.029,13.3004,4.60036,2470.474,2022-6-10T11:21:07Z
2022-06-10T09:22:27Z,42.805,6.029,13.3004,4.60035,2470.46,2022-6-10T11:24:10Z
2022-06-10T09:25:30Z,42.805,6.029,13.3006,4.60034,2470.46,2022-6-10T11:27:13Z
2022-06-10T09:28:34Z,42.805,6.029,13.3004,4.60036,2470.46,2022-6-10T11:30:17Z
2022-06-10T09:31:37Z,42.805,6.029,13.3003,4.60036,2470.483,2022-6-10T11:33:20Z
2022-06-10T09:34:40Z,42.805,6.029,13.3006,4.60033,2470.483,2022-6-10T11:36:23Z
2022-06-10T09:37:43Z,42.805,6.029,13.3003,4.60033,2470.474,2022-6-10T11:39:26Z
2022-06-10T09:40:46Z,42.805,6.029,13.3005,4.60036,2470.474,2022-6-10T11:42:29Z
2022-06-10T09:43:49Z,42.805,6.029,13.3004,4.60034,2470.437,2022-6-10T11:45:32Z
2022-06-10T09:46:52Z,42.805,6.029,13.3004,4.60034,2470.497,2022-6-10T11:48:35Z
2022-06-10T09:49:55Z,42.805,6.029,13.3000,4.60035,2470.46,2022-6-10T11:51:38Z
2022-06-10T09:52:59Z,42.805,6.029,13.3004,4.60033,2470.446,2022-6-10T11:54:42Z
2022-06-10T09:56:02Z,42.805,6.029,13.3000,4.60033,2470.474,2022-6-10T11:57:45Z
2022-06-10T09:59:05Z,42.805,6.029,13.3004,4.60033,2470.437,2022-6-10T12:00:48Z
2022-06-10T10:02:08Z,42.805,6.029,13.3007,4.60033,2470.46,2022-6-10T12:03:51Z
2022-06-10T10:05:11Z,42.805,6.029,13.3004,4.60037,2470.437,2022-6-10T12:06:54Z
2022-06-10T10:08:14Z,42.805,6.029,13.3004,4.60037,2470.46,2022-6-10T12:09:57Z
2022-06-10T10:11:17Z,42.805,6.029,13.3006,4.60034,2470.46,2022-6-10T12:13:00Z
2022-06-10T10:14:20Z,42.805,6.029,13.2998,4.60033,2470.46,2022-6-10T12:16:03Z
2022-06-10T10:17:24Z,42.805,6.029,13.3002,4.60032,2470.46,2022-6-10T12:19:07Z
2022-06-10T10:20:27Z,42.805,6.029,13.3002,4.60033,2470.483,2022-6-10T12:22:10Z
2022-06-10T10:23:30Z,42.805,6.029,13.3006,4.60033,2470.413,2022-6-10T12:25:13Z
2022-06-10T10:26:33Z,42.805,6.029,13.3003,4.60033,2470.46,2022-6-10T12:28:16Z
2022-06-10T10:29:36Z,42.805,6.029,13.3003,4.60032,2470.437,2022-6-10T12:31:19Z
2022-06-10T10:32:39Z,42.805,6.029,13.3007,4.60033,2470.46,2022-6-10T12:34:22Z
2022-06-10T10:35:42Z,42.805,6.029,13.3002,4.60032,2470.46,2022-6-10T12:37:25Z
2022-06-10T10:38:45Z,42.805,6.029,13.3004,4.60033,2470.46,2022-6-10T12:40:28Z
2022-06-10T10:41:49Z,42.805,6.029,13.3004,4.60033,2470.437,2022-6-10T12:43:32Z
2022-06-10T10:44:52Z,42.805,6.029,13.2999,4.60033,2470.497,2022-6-10T12:46:35Z
2022-06-10T10:47:55Z,42.805,6.029,13.3005,4.60033,2470.483,2022-6-10T12:49:38Z
2022-06-10T10:50:58Z,42.805,6.029,13.3004,4.60034,2470.507,2022-6-10T12:52:41Z
2022-06-10T10:54:01Z,42.805,6.029,13.3004,4.60035,2470.474,2022-6-10T12:55:44Z
2022-06-10T10:57:04Z,42.805,6.029,13.3003,4.60033,2470.46,2022-6-10T12:58:47Z
2022-06-10T11:00:07Z,42.805,6.029,13.2998,4.60033,2470.474,2022-6-10T13:01:50Z
2022-06-10T11:03:10Z,42.805,6.029,13.3003,4.60033,2470.497,2022-6-10T13:04:54Z
2022-06-10T11:06:14Z,42.805,6.029,13.3006,4.60034,2470.46,2022-6-10T13:07:57Z
2022-06-10T11:09:17Z,42.805,6.029,13.3004,4.60033,2470.46,2022-6-10T13:11:00Z
2022-06-10T11:12:20Z,42.805,6.029,13.3005,4.60036,2470.46,2022-6-10T13:14:03Z
2022-06-10T11:15:23Z,42.805,6.029,13.3004,4.60035,2470.46,2022-6-10T13:17:06Z
2022-06-10T11:18:26Z,42.805,6.029,13.3004,4.60036,2470.483,2022-6-10T13:20:09Z
2022-06-10T11:21:29Z,42.805,6.029,13.3005,4.60033,2470.497,2022-6-10T13:23:12Z
2022-06-10T11:24:32Z,42.805,6.029,13.3004,4.60036,2470.46,2022-6-10T13:26:15Z
2022-06-10T11:27:35Z,42.805,6.029,13.3004,4.60033,2470.437,2022-6-10T13:29:18Z
2022-06-10T11:30:39Z,42.805,6.029,13.3004,4.60033,2470.483,2022-6-10T13:32:22Z
2022-06-10T11:33:42Z,42.805,6.029,13.3007,4.60033,2470.483,2022-6-10T13:35:25Z
2022-06-10T11:36:45Z,42.805,6.029,13.3004,4.60033,2470.497,2022-6-10T13:38:28Z
2022-06-10T11:39:48Z,42.805,6.029,13.3005,4.60033,2470.497,2022-6-10T13:41:31Z
2022-06-10T11:42:51Z,42.805,6.029,13.3007,4.60034,2470.483,2022-6-10T13:44:34Z
2022-06-10T11:45:54Z,42.805,6.029,13.3001,4.60036,2470.46,2022-6-10T13:47:37Z
2022-06-10T11:48:57Z,42.805,6.029,13.3004,4.60034,2470.46,2022-6-10T13:50:40Z
2022-06-10T11:52:01Z,42.805,6.029,13.3004,4.60033,2470.483,2022-6-10T13:53:44Z
2022-06-10T11:55:04Z,42.805,6.029,13.3003,4.60033,2470.497,2022-6-10T13:56:47Z
2022-06-10T11:58:07Z,42.805,6.029,13.3008,4.60034,2470.474,2022-6-10T13:59:50Z
2022-06-10T12:01:10Z,42.805,6.029,13.3004,4.60033,2470.483,2022-6-10T14:02:53Z
2022-06-10T12:04:13Z,42.805,6.029,13.3001,4.60034,2470.483,2022-6-10T14:05:56Z
2022-06-10T12:07:16Z,42.805,6.029,13.3004,4.60034,2470.483,2022-6-10T14:08:59Z
2022-06-10T12:10:19Z,42.805,6.029,13.3003,4.60034,2470.497,2022-6-10T14:12:02Z
2022-06-10T12:13:22Z,42.805,6.029,13.3004,4.60036,2470.52,2022-6-10T14:15:05Z
2022-06-10T12:16:25Z,42.805,6.029,13.3004,4.60036,2470.47,2022-6-10T14:18:09Z
2022-06-10T12:19:29Z,42.805,6.029,13.2999,4.60034,2470.483,2022-6-10T14:21:12Z
2022-06-10T12:22:32Z,42.805,6.029,13.3003,4.60033,2470.53,2022-6-10T14:24:15Z
2022-06-10T12:25:35Z,42.805,6.029,13.3005,4.60033,2470.507,2022-6-10T14:27:18Z
2022-06-10T12:28:38Z,42.805,6.029,13.3004,4.60033,2470.52,2022-6-10T14:30:21Z
2022-06-10T12:31:41Z,42.805,6.029,13.3006,4.60033,2470.52,2022-6-10T14:33:24Z
2022-06-10T12:34:44Z,42.805,6.029,13.3004,4.60034,2470.52,2022-6-10T14:36:27Z
2022-06-10T12:37:47Z,42.805,6.029,13.3004,4.60033,2470.507,2022-6-10T14:39:30Z
2022-06-10T12:40:51Z,42.805,6.029,13.3004,4.60034,2470.507,2022-6-10T14:42:34Z
2022-06-10T12:43:54Z,42.805,6.029,13.3006,4.60035,2470.493,2022-6-10T14:45:37Z
2022-06-10T12:46:57Z,42.805,6.029,13.3006,4.60034,2470.483,2022-6-10T14:48:40Z
2022-06-10T12:50:00Z,42.805,6.029,13.3005,4.60034,2470.52,2022-6-10T14:51:43Z
2022-06-10T12:53:03Z,42.805,6.029,13.3002,4.60034,2470.507,2022-6-10T14:54:46Z
2022-06-10T12:56:06Z,42.805,6.029,13.3001,4.60033,2470.507,2022-6-10T14:57:49Z
2022-06-10T12:59:09Z,42.805,6.029,13.3005,4.60035,2470.52,2022-6-10T15:00:52Z
2022-06-10T13:02:12Z,42.805,6.029,13.3006,4.60033,2470.52,2022-6-10T15:03:55Z
2022-06-10T13:05:16Z,42.805,6.029,13.3000,4.60033,2470.483,2022-6-10T15:06:59Z
2022-06-10T13:08:19Z,42.805,6.029,13.3004,4.60036,2470.497,2022-6-10T15:10:02Z
2022-06-10T13:11:22Z,42.805,6.029,13.3001,4.60036,2470.52,2022-6-10T15:13:05Z
2022-06-10T13:14:25Z,42.805,6.029,13.3005,4.60036,2470.53,2022-6-10T15:16:08Z
2022-06-10T13:17:28Z,42.805,6.029,13.3000,4.60035,2470.53,2022-6-10T15:19:11Z
2022-06-10T13:20:31Z,42.805,6.029,13.3006,4.60033,2470.53,2022-6-10T15:22:14Z
2022-06-10T13:23:34Z,42.805,6.029,13.3004,4.60033,2470.507,2022-6-10T15:25:17Z
2022-06-10T13:26:37Z,42.805,6.029,13.3002,4.60034,2470.53,2022-6-10T15:28:20Z
2022-06-10T13:29:41Z,42.805,6.029,13.3003,4.60034,2470.507,2022-6-10T15:31:24Z
2022-06-10T13:32:44Z,42.805,6.029,13.3001,4.60034,2470.53,2022-6-10T15:34:27Z
2022-06-10T13:35:47Z,42.805,6.029,13.3002,4.60035,2470.52,2022-6-10T15:37:30Z
2022-06-10T13:38:50Z,42.805,6.029,13.2999,4.60033,2470.553,2022-6-10T15:40:33Z
2022-06-10T13:41:53Z,42.805,6.029,13.3002,4.60035,2470.53,2022-6-10T15:43:36Z
2022-06-10T13:44:56Z,42.805,6.029,13.3002,4.60034,2470.53,2022-6-10T15:46:39Z
2022-06-10T13:47:59Z,42.805,6.029,13.3005,4.60034,2470.553,2022-6-10T15:49:42Z
2022-06-10T13:51:02Z,42.805,6.029,13.3004,4.60033,2470.553,2022-6-10T15:52:45Z
2022-06-10T13:54:06Z,42.805,6.029,13.3005,4.60034,2470.53,2022-6-10T15:55:49Z
2022-06-10T13:57:09Z,42.805,6.029,13.3003,4.60033,2470.567,2022-6-10T15:58:52Z
2022-06-10T14:00:12Z,42.805,6.029,13.3006,4.60034,2470.53,2022-6-10T16:01:55Z
2022-06-10T14:03:15Z,42.805,6.029,13.3003,4.60033,2470.577,2022-6-10T16:04:58Z
2022-06-10T14:06:18Z,42.805,6.029,13.3001,4.60034,2470.577,2022-6-10T16:08:01Z
2022-06-10T14:09:21Z,42.805,6.029,13.3004,4.60034,2470.577,2022-6-10T16:11:04Z
2022-06-10T14:12:24Z,42.805,6.029,13.3003,4.60036,2470.591,2022-6-10T16:14:07Z
2022-06-10T14:15:27Z,42.805,6.029,13.3002,4.60035,2470.577,2022-6-10T16:17:10Z
2022-06-10T14:18:31Z,42.805,6.029,13.3004,4.60034,2470.577,2022-6-10T16:20:14Z
2022-06-10T14:21:34Z,42.805,6.029,13.3000,4.60036,2470.553,2022-6-10T16:23:17Z
2022-06-10T14:24:37Z,42.805,6.029,13.3005,4.60035,2470.577,2022-6-10T16:26:20Z
2022-06-10T14:27:40Z,42.805,6.029,13.3006,4.60034,2470.591,2022-6-10T16:29:23Z
2022-06-10T14:30:43Z,42.805,6.029,13.3001,4.60035,2470.516,2022-6-10T16:32:26Z
2022-06-10T14:33:46Z,42.805,6.029,13.3004,4.60033,2470.53,2022-6-10T16:35:29Z
2022-06-10T14:36:49Z,42.805,6.029,13.3003,4.60034,2470.539,2022-6-10T16:38:32Z
2022-06-10T14:39:52Z,42.805,6.029,13.3002,4.60035,2470.563,2022-6-10T16:41:35Z
2022-06-10T14:42:56Z,42.805,6.029,13.3002,4.60033,2470.614,2022-6-10T16:44:39Z
2022-06-10T14:45:59Z,42.805,6.029,13.3006,4.60036,2470.577,2022-6-10T16:47:42Z
2022-06-10T14:49:02Z,42.805,6.029,13.3003,4.60034,2470.577,2022-6-10T16:50:45Z
2022-06-10T14:52:05Z,42.805,6.029,13.3004,4.60035,2470.567,2022-6-10T16:53:48Z
2022-06-10T14:55:08Z,42.805,6.029,13.3005,4.60034,2470.6,2022-6-10T16:56:51Z
2022-06-10T14:58:11Z,42.805,6.029,13.3001,4.60034,2470.577,2022-6-10T16:59:54Z
2022-06-10T15:01:14Z,42.805,6.029,13.3003,4.60034,2470.591,2022-6-10T17:02:57Z
2022-06-10T15:04:17Z,42.805,6.029,13.3004,4.60036,2470.614,2022-6-10T17:06:00Z
2022-06-10T15:07:21Z,42.805,6.029,13.3004,4.60037,2470.577,2022-6-10T17:09:04Z
2022-06-10T15:10:24Z,42.805,6.029,13.3002,4.60034,2470.553,2022-6-10T17:12:07Z
2022-06-10T15:13:27Z,42.805,6.029,13.3002,4.60035,2470.577,2022-6-10T17:15:10Z